Weather History for Concord, NH

Change the Weather History Date:

Wednesday, January 2, 2013

  Actual Average Record
Temperature  
Mean Temperature 11 °F 22 °F  
Max Temperature 24 °F 32 °F 61 °F (1990)
Min Temperature -3 °F 12 °F -21 °F (1968)
Degree Days  
Heating Degree Days 54 43  
Month to date heating degree days 97 86  
Since 1 July heating degree days 2617 2832  
Cooling Degree Days 0 0  
Month to date cooling degree days 0 0  
Year to date cooling degree days 0 0  
Moisture  
Dew Point 0 °F    
Average Humidity 69    
Maximum Humidity 91    
Minimum Humidity 47    
Precipitation  
Precipitation 0.00 in 0.09 in 0.95 in (1959)
Month to date precipitation T 0.18  
Year to date precipitation T 0.18  
Snow  
Snow 0.00 in 0.60 in 10.40 in (1987)
Month to date snowfall T 1.1  
Since 1 July snowfall 14.4 18.2  
Snow Depth 6.00 in    
Sea Level Pressure  
Sea Level Pressure 29.98 in    
Wind  
Wind Speed 8 mph (NW)    
Max Wind Speed 23 mph    
Max Gust Speed 32 mph    
Visibility 10 miles    
Events      
T = Trace of Precipitation, MM = Missing Value Source: NWS Daily Summary

Daily Weather History Graph

Daily Weather History Graph

Search for Another Location

Airport:

Trip Planner

Search our weather history database for the weather conditions in past years. The results will help you decide how hot, cold, wet, or windy it might be!

Date:

Astronomy

Jan. 02, 2013 Rise Set
Actual Time 7:18 AM EST 4:22 PM EST
Civil Twilight 6:45 AM EST 4:54 PM EST
Nautical Twilight 6:10 AM EST 5:30 PM EST
Astronomical Twilight 5:35 AM EST 6:05 PM EST
Moon 10:01 PM EST (1/2) 9:49 AM EST (1/2)
Length of Visible Light 10h 09m
Length of Day
9h 04m
Waning Gibbous, 75% of the Moon is Illuminated
Jan 2
Waning Gibbous
Jan 4
Last Quarter
Jan 11
New
Jan 18
First Quarter
Jan 26
Full

Hourly Weather History & Observations

Time (EST) Temp. Windchill Dew Point Humidity Pressure Visibility Wind Dir Wind Speed Gust Speed Precip Events Conditions
12:51 AM 9.0 °F 0.6 °F -2.0 °F 61% 29.92 in 10.0 mi NNW 4.6 mph - N/A   Clear
1:51 AM 6.1 °F - -0.9 °F 73% 29.93 in 10.0 mi Calm Calm - N/A   Clear
2:51 AM 9.0 °F -0.9 °F -0.0 °F 67% 29.93 in 10.0 mi WSW 5.8 mph - N/A   Clear
3:51 AM 3.9 °F - -2.0 °F 76% 29.93 in 10.0 mi Calm Calm - N/A   Clear
4:51 AM 1.0 °F - -2.9 °F 83% 29.91 in 10.0 mi Calm Calm - N/A   Clear
5:51 AM -2.0 °F - -4.0 °F 91% 29.92 in 10.0 mi Calm Calm - N/A   Mostly Cloudy
6:51 AM 1.9 °F -5.6 °F -2.0 °F 83% 29.91 in 10.0 mi SE 3.5 mph - N/A   Overcast
7:51 AM 6.1 °F -0.9 °F 3.0 °F 87% 29.90 in 9.0 mi SE 3.5 mph - N/A   Overcast
8:51 AM 10.9 °F - 3.9 °F 73% 29.90 in 10.0 mi Calm Calm - N/A   Overcast
9:51 AM 18.0 °F 12.7 °F 6.1 °F 60% 29.91 in 10.0 mi WSW 3.5 mph - N/A   Mostly Cloudy
10:51 AM 21.0 °F 11.4 °F 9.0 °F 60% 29.91 in 10.0 mi West 8.1 mph - N/A   Partly Cloudy
11:51 AM 21.2 °F 13.6 °F 10.4 °F 63% 29.87 in 10.0 mi West 5.8 mph - N/A   Overcast
12:51 PM 23.0 °F 10.1 °F 9.0 °F 55% 29.90 in 10.0 mi NNW 15.0 mph 21.9 mph N/A   Overcast
1:51 PM 21.9 °F 11.0 °F 10.9 °F 63% 29.93 in 10.0 mi NNW 10.4 mph - N/A   Overcast
2:51 PM 21.0 °F 6.6 °F 5.0 °F 50% 29.95 in 10.0 mi NW 17.3 mph 31.1 mph N/A   Clear
3:51 PM 19.9 °F 9.3 °F 3.0 °F 48% 29.99 in 10.0 mi NNW 9.2 mph - N/A   Partly Cloudy
4:51 PM 18.0 °F 5.4 °F 3.0 °F 52% 30.01 in 10.0 mi NW 11.5 mph - N/A   Clear
5:51 PM 16.0 °F 1.1 °F -0.0 °F 49% 30.04 in 10.0 mi NNW 15.0 mph 23.0 mph N/A   Clear
6:51 PM 12.0 °F -2.7 °F -2.9 °F 51% 30.08 in 10.0 mi NW 12.7 mph 20.7 mph N/A   Clear
7:51 PM 9.0 °F -7.3 °F -5.1 °F 53% 30.09 in 10.0 mi NW 13.8 mph 24.2 mph N/A   Clear
8:51 PM 6.1 °F -9.5 °F -7.1 °F 55% 30.11 in 10.0 mi NNW 11.5 mph - N/A   Clear
9:51 PM 3.9 °F -14.3 °F -9.0 °F 55% 30.12 in 10.0 mi WNW 15.0 mph 20.7 mph N/A   Clear
10:51 PM 1.9 °F -14.7 °F -9.9 °F 58% 30.13 in 10.0 mi NW 11.5 mph - N/A   Clear
11:51 PM 1.9 °F -9.2 °F -9.9 °F 58% 30.14 in 10.0 mi WNW 5.8 mph - N/A   Clear